Simultaneous Nadir Overpasses (SNOs) Predictions

Prediction of SNOs between GOES-17 and AQUA Satellite Orbit:

Table of predicted SNOs for the next 14.0 days since TLE Epoch: 5/29/2020
Index Date Time (GOES-17) GOES-17 Lat,Lon AQUA Lat,Lon Distance(km) Time Diff (sec)
1 05/30/2020 10:30:47 0.00,-137.20 -0.63,-134.19 341.70 80
2 05/30/2020 22:54:51 -0.00,-137.19 -0.46,-139.39 249.39 80
3 06/01/2020 22:40:01 -0.00,-137.19 0.17,-136.44 85.66 80
4 06/03/2020 22:30:30 0.00,-137.17 0.81,-133.48 419.99 80
5 06/04/2020 10:51:44 -0.00,-137.17 0.30,-138.63 166.36 80
6 06/06/2020 10:36:53 -0.00,-137.15 -0.34,-135.68 167.17 80
7 06/06/2020 22:58:17 0.00,-137.13 -0.79,-140.87 424.51 80
8 06/08/2020 22:46:06 -0.00,-137.11 -0.14,-137.92 91.53 80
9 06/10/2020 22:36:34 -0.00,-137.07 0.45,-134.95 241.29 80
10 06/11/2020 10:55:10 0.00,-137.07 0.62,-140.11 345.48 80




NCC Satellite Simultaneous Nadir Overpasses (SNOs) Prediction Service
